Regional Weather Roundup
Issued by NWS Burlington, VT

Home | Current Version | Previous Version | Text Only | Print | Product List | Glossary On
Versions: 1 2 3 4 5 6 7 8 9 10 11 12 13 14 15 16 17 18 19 20 21 22 23 24 25 26 27 28 29 30 31 32 33 34 35 36 37 38 39 40 41 42 43 44 45 46 47 48 49 50
000
ASUS41 KBTV 160810
RWRBTV
VERMONT REGIONAL WEATHER ROUNDUP
NATIONAL WEATHER SERVICE BURLINGTON VT
400 AM EDT WED APR 16 2014

NOTE: "FAIR" INDICATES FEW OR NO CLOUDS BELOW 12,000 FEET WITH NO
SIGNIFICANT WEATHER AND/OR OBSTRUCTIONS TO VISIBILITY.

* THESE REPORTS ARE NOT UNDER NWS QUALITY CONTROL AND/OR DO NOT
  REPORT WEATHER SUCH AS PRECIPITATION AND FOG.

VTZ001>019-160900-
_____VERMONT_____


CITY           SKY/WX    TMP DP  RH WIND       PRES   REMARKS
BURLINGTON     CLOUDY    24  14  65 NW18      30.05S WCI  10
MONTPELIER     FLURRIES  20  15  81 NW14G29   29.95S WCI   7
MORRISVILLE    FLURRIES  22  13  68 NW12G20   29.99R WCI  10
ST. JOHNSBURY*   N/A     23  16  74 MISG      29.94R
LYNDONVILLE*   FLURRIES  21  15  75 NW13G21   29.94R WCI   9
MIDDLEBURY*    FAIR      23  20  87 NW7       30.02S
RUTLAND*       CLOUDY    25  16  68 NW15G25   29.98R WCI  12
SPRINGFIELD    CLOUDY    28  21  75 NW10G18   29.93R WCI  19
HIGHGATE*      FAIR      24  15  68 NW7G18    30.06R
NEWPORT*       LGT SNOW  22  15  72 W10G21    29.97R WCI  11
BENNINGTON     CLOUDY    27  18  69 N13G21    29.97R WCI  16
SUTTON*          N/A     18 N/A N/A MISG        N/A

_____LAKE CHAMPLAIN_____


CITY           SKY/WX    TMP DP  RH WIND       PRES   REMARKS
COLCHESTER RF*   N/A     27  18  69 N22         N/A  WCI  12
DIAMOND ISL*     N/A     27  16  63 N13         N/A  WCI  16

$$

NYZ007-026>031-035-052-083-160900-
_____NORTHERN NEW YORK_____


CITY           SKY/WX    TMP DP  RH WIND       PRES   REMARKS
PLATTSBURGH    CLOUDY    24  14  65 NW9G16    30.05R
SARANAC LAKE   LGT SNOW  16  13  88 NW6       29.98R VSB 1
MASSENA        SUNNY     21  12  68 W14       30.15R WCI   8
OGDENSBURG*    FLURRIES  23  18  80 NW9       30.18R
POTSDAM*       SUNNY     21  12  68 NW13G18   30.15R WCI   9
WATERTOWN      LGT SNOW  24  16  71 N9        30.18R
FT DRUM        CLOUDY    21  15  75 NW7       30.14R
ALBANY         CLOUDY    29  20  69 NW20      30.03R WCI  16
GLENS FALLS    CLOUDY    25  17  72 NW10      30.05R WCI  15

$$
NHZ002-005-011-160900-
_____NEW HAMPSHIRE_____


CITY           SKY/WX    TMP DP  RH WIND       PRES   REMARKS
LEBANON        CLOUDY    28  20  71 NW15G25   29.94R WCI  16
KEENE          CLOUDY    30  21  69 N13G21    29.89R
MT WASHINGTON  BLWGSNOW   3   3 100 NW64        N/A  VSB 0   WCI -29
PLYMOUTH         N/A     28  22  79 NW12G21   29.88R WCI  18
WHITEFIELD     LGT SNOW  24  19  81 W8G18     29.92R

$$

_____REGIONAL QUEBEC LOCATIONS_____


CITY           SKY/WX    TMP DP  RH WIND       PRES   REMARKS
MONTREAL       CLOUDY    21  10  63 W21G31    30.07R WCI   6
QUEBEC CITY    CLOUDY    19  14  79 W20       29.90R WCI   4
SHERBROOKE     LGT SNOW  21  18  86 W15       29.95R WCI   8

_____REGIONAL ONTARIO LOCATIONS_____


CITY           SKY/WX    TMP DP  RH WIND       PRES   REMARKS
OTTAWA         SUNNY     16   9  73 NW12G17   30.15R WCI   3

______KEY______
VSB  - VISIBILITY IN MILES
WCI  - WIND CHILL INDEX
HX   - HEAT INDEX
$$
NNNN


USA.gov is the U.S. government's official web portal to all federal, state and local government web resources and services.